Location: Malvern Link
(52.1333°N, 2.3000°W)
Time: 14:49:31
(UTC+00:00)

DIWATA 2B (PO-101) - Pass Details

Date: 30 June 2022
Orbit: 583 x 599 km, 98.0° (Epoch: 19 August)

Event Time Altitude Azimuth Distance (km) Brightness Sun altitude
Exits shadow 01:30:03 - 151° (SSE) 2,026 ? -12.8°
Reaches altitude 10° 01:30:16 10° 150° (SSE) 1,937 ? -12.8°
Maximum altitude 01:34:24 60° 71° (ENE) 690 ? -12.6°
Drops below altitude 10° 01:38:35 10° 352° (N) 1,955 ? -12.4°
Sets 01:40:47 0° 349° (NNW) 2,862 ? -12.3°
